Вернуться в каталог

STARLINK-4064

АктивенСвязьVLEO
NORAD 52665·PAYLOAD·🇺🇸 United States

Запущен May 18, 2022 с Cape Canaveral Space Force Station

Loading…

Ближайшие Пролёты (ближайшие 24 часа)

TLE

СвежийSource: CelesTrak SupGP

Эпоха: Sep 15, 2026, 01:37 UTC

1 52665C 22053K   26258.06784722 -.00019002  00000+0 -11920-2 0  2581
2 52665  53.1605  23.3376 0001089  90.2632  49.4996 15.08835618    17

Отслеживайте STARLINK-4064 в реальном времени с AllMySat

Download on the App Store